Simultaneous Nadir Overpasses (SNOs) Predictions

Prediction of SNOs between AQUA and NOAA-19 Satellite Orbit:

Table of predicted SNOs for the next 14.0 days since TLE Epoch: 9/18/2015
Index Date (AQUA) Time (AQUA) Lat,Lon (AQUA) SZA (AQUA ) Date (NOAA-19) Time (NOAA-19) Lat,Lon (NOAA-19) SZA (NOAA-19 ) Distance(km) Time Diff (sec)
1 09/20/2015 15:14:43 80.39, -82.65 80.80 09/20/2015 15:14:56 80.38, -82.50 80.77 2.99 13
2 09/22/2015 19:59:01 80.43,-154.13 81.70 09/22/2015 19:58:15 80.43,-154.02 81.71 2.19 46
3 09/22/2015 20:48:26 -80.39, 13.96 98.37 09/22/2015 20:49:13 -80.38, 13.91 98.38 0.93 47
4 09/25/2015 01:32:44 -80.43, -57.56 97.46 09/25/2015 01:32:31 -80.42, -57.48 97.47 1.84 13
5 09/27/2015 06:17:02 -80.48,-129.15 96.53 09/27/2015 06:15:50 -80.48,-129.24 96.50 1.66 72
6 09/27/2015 07:06:26 80.40, 39.29 83.35 09/27/2015 07:06:50 80.41, 39.16 83.36 2.56 24
7 09/29/2015 11:50:44 80.46, -32.35 84.28 09/29/2015 11:50:09 80.46, -32.46 84.31 2.05 35
8 09/29/2015 12:40:08 -80.38, 136.07 95.84 09/29/2015 12:41:04 -80.39, 135.96 95.85 2.24 56




NCC Satellite Simultaneous Nadir Overpasses (SNOs) Prediction Service
